W3DAK Weather Reports


Display with metric or nautical units.
time (UTC)temp
F
wind
direction
speed
MPH
gust
MPH
rain 1hr
in
rain 24hr
in
rain mn
in
humidity
%
barometer
mb
20260510104521 50 338 0.0 3.0 0.00 0.00 0.00 93 1012.1
20260510103019 50 346 1.0 3.0 0.00 0.00 0.00 93 1012.1
20260510101525 50 221 0.0 0.0 0.00 0.00 0.00 93 1011.8
20260510100014 50 221 0.0 2.0 0.00 0.00 0.00 93 1011.7
20260510094512 51 11 0.0 0.0 0.00 0.00 0.00 93 1011.5
20260510093009 51 11 0.0 3.0 0.00 0.00 0.00 93 1011.4
20260510091508 51 355 1.0 4.0 0.00 0.00 0.00 93 1011.7
20260510090006 52 289 0.0 4.0 0.00 0.00 0.00 93 1011.4
20260510084506 52 337 2.0 9.0 0.00 0.00 0.00 93 1011.4
20260510083003 51 338 4.0 10.0 0.00 0.00 0.00 93 1011.4
20260510081502 51 336 2.0 4.0 0.00 0.00 0.00 92 1011.0
20260510080103 52 327 1.0 2.0 0.00 0.00 0.00 92 1010.8
20260510074558 52 327 1.0 2.0 0.00 0.00 0.00 92 1010.8
20260510073106 52 327 1.0 3.0 0.00 0.00 0.00 92 1010.6
20260510071556 52 325 0.0 2.0 0.00 0.00 0.00 92 1010.5
20260510070053 52 329 1.0 3.0 0.00 0.00 0.00 91 1010.3
20260510064554 53 42 0.0 0.0 0.00 0.00 0.00 91 1010.1
20260510063052 53 36 0.0 0.0 0.00 0.00 0.00 91 1010.1
20260510061548 53 34 0.0 2.0 0.00 0.00 0.00 91 1010.2
20260510060047 54 34 0.0 2.0 0.00 0.00 0.00 91 1010.2
20260510054647 54 46 1.0 3.0 0.00 0.00 0.00 91 1010.4
20260510053044 54 34 0.0 3.0 0.00 0.00 0.00 90 1010.4
20260510051542 54 53 0.0 2.0 0.00 0.00 0.00 90 1010.5
20260510050046 54 36 0.0 1.0 0.00 0.00 0.00 90 1010.5
20260510044542 55 36 0.0 0.0 0.00 0.00 0.00 89 1010.6
20260510043038 55 33 0.0 2.0 0.00 0.00 0.00 89 1010.7
20260510041537 55 50 0.0 2.0 0.00 0.00 0.00 89 1010.6
20260510040037 55 20 0.0 2.0 0.00 0.00 0.00 88 1010.6
20260510034534 56 44 0.0 2.0 0.00 0.00 0.00 88 1010.5
20260510033038 56 41 0.0 3.0 0.00 0.00 0.00 87 1010.5
20260510031532 56 14 0.0 2.0 0.00 0.00 0.00 86 1010.4
20260510030032 57 66 0.0 1.0 0.00 0.00 0.00 85 1010.3
20260510024532 57 67 0.0 0.0 0.00 0.00 0.00 85 1010.3
20260510023032 58 74 0.0 2.0 0.00 0.00 0.00 84 1010.2
20260510021531 58 86 0.0 2.0 0.00 0.00 0.00 84 1010.2
20260510020029 59 109 0.0 2.0 0.00 0.00 0.00 84 1010.3
20260510014529 59 107 0.0 3.0 0.00 0.00 0.00 83 1010.1
20260510013027 60 126 1.0 4.0 0.00 0.00 0.00 82 1010.0
20260510011528 61 80 0.0 3.0 0.00 0.00 0.00 80 1009.8
20260510010027 61 119 0.0 4.0 0.00 0.00 0.00 79 1009.7
20260510004526 62 107 1.0 4.0 0.00 0.00 0.00 78 1009.6
20260510003026 63 142 0.0 6.0 0.00 0.00 0.00 76 1009.4
20260510001525 64 99 0.0 3.0 0.00 0.00 0.00 74 1009.4
20260510000033 66 130 0.0 2.0 0.00 0.00 0.00 72 1009.3
20260509234537 66 108 0.0 3.0 0.00 0.00 0.00 71 1009.1
20260509233023 67 86 0.0 6.0 0.00 0.00 0.00 71 1009.0
20260509231522 69 38 0.0 3.0 0.00 0.00 0.00 65 1008.9
20260509230023 70 60 1.0 4.0 0.00 0.00 0.00 63 1008.7
20260509224533 71 94 1.0 6.0 0.00 0.00 0.00 62 1008.7
20260509223021 71 121 2.0 7.0 0.00 0.00 0.00 61 1008.8
20260509221522 71 132 2.0 6.0 0.00 0.00 0.00 63 1008.8
20260509220023 70 124 2.0 4.0 0.00 0.00 0.00 63 1008.9
20260509214520 69 141 0.0 4.0 0.00 0.00 0.00 65 1009.0
20260509213019 70 173 2.0 5.0 0.00 0.00 0.00 63 1009.0
20260509211518 71 175 2.0 6.0 0.00 0.00 0.00 60 1009.0
20260509210015 71 136 2.0 6.0 0.00 0.00 0.00 62 1008.7
20260509204513 70 5 1.0 7.0 0.00 0.00 0.00 63 1008.7
20260509203011 69 193 1.0 5.0 0.00 0.00 0.00 67 1008.8
20260509201509 68 124 2.0 7.0 0.00 0.00 0.00 66 1008.9
20260509200007 68 210 2.0 6.0 0.00 0.00 0.00 66 1009.2
20260509194505 68 135 1.0 6.0 0.00 0.00 0.00 69 1009.3
20260509193007 69 122 2.0 4.0 0.00 0.00 0.00 65 1009.5
20260509191503 68 344 0.0 3.0 0.00 0.00 0.00 70 1009.5
20260509190006 66 121 1.0 4.0 0.00 0.00 0.00 71 1009.7
20260509184602 65 84 2.0 5.0 0.00 0.00 0.00 75 1009.8
20260509183104 64 76 0.0 3.0 0.00 0.00 0.00 82 1010.2
20260509181609 64 32 0.0 3.0 0.00 0.00 0.00 80 1010.6
20260509180113 65 18 1.0 3.0 0.00 0.00 0.00 76 1010.6
20260509174554 66 68 0.0 0.0 0.00 0.00 0.00 73 1010.6
20260509173107 67 68 0.0 2.0 0.00 0.00 0.00 68 1010.6
20260509171553 68 173 0.0 2.0 0.00 0.00 0.00 63 1010.7
20260509170054 68 306 0.0 4.0 0.00 0.00 0.00 61 1010.6
20260509164550 69 248 2.0 7.0 0.00 0.00 0.00 60 1010.8
20260509163046 68 231 3.0 7.0 0.00 0.00 0.00 62 1010.7
20260509161557 67 304 1.0 6.0 0.00 0.00 0.00 62 1011.0
20260509160043 67 180 3.0 10.0 0.00 0.00 0.00 63 1011.0
20260509154541 66 266 3.0 8.0 0.00 0.00 0.00 62 1010.9
20260509153036 65 205 3.0 8.0 0.00 0.00 0.00 63 1011.2
20260509151532 64 242 2.0 5.0 0.00 0.00 0.00 65 1011.5
20260509150030 64 201 2.0 6.0 0.00 0.00 0.00 65 1011.8
20260509144532 64 260 3.0 7.0 0.00 0.00 0.00 65 1011.9
20260509143029 64 236 3.0 8.0 0.00 0.00 0.00 65 1011.8
20260509141538 63 234 2.0 8.0 0.00 0.00 0.00 66 1011.8
20260509140025 62 237 1.0 7.0 0.00 0.00 0.00 69 1011.8
20260509134623 62 173 2.0 10.0 0.00 0.00 0.00 67 1011.9
20260509133021 62 237 3.0 10.0 0.00 0.00 0.00 66 1011.8
20260509131526 62 196 4.0 10.0 0.00 0.00 0.00 67 1011.7
20260509130023 61 291 3.0 9.0 0.00 0.00 0.00 70 1011.8
20260509124516 60 210 2.0 8.0 0.00 0.00 0.00 72 1011.8
20260509123014 60 250 5.0 10.0 0.00 0.00 0.00 72 1011.7
20260509121507 59 242 2.0 8.0 0.00 0.00 0.00 74 1011.7
20260509120010 59 246 2.0 8.0 0.00 0.00 0.00 77 1011.7
20260509114559 59 173 3.0 7.0 0.00 0.00 0.00 77 1011.7
20260509113055 58 203 4.0 8.0 0.00 0.00 0.00 77 1011.5
20260509111551 58 199 4.0 11.0 0.00 0.00 0.00 78 1011.4
20260509110048 58 168 3.0 8.0 0.00 0.00 0.00 75 1011.3